This is the latest recevied weather packets stored in our database for station/object K4ZZR. If no packets are shown the sender has not sent any weather packets the latest 10 day(s).
| Time | Temp. | Humidity | Pressure | Rain* | Wind** | Luminosity | Snow |
|---|---|---|---|---|---|---|---|
| 1777510815 | 25° C | 80% | 1013 hPa | 0 mm | - | 0 W/m² | - |
| 1777510512 | 25° C | 80% | 1012.9 hPa | 0 mm | - | 0 W/m² | - |
| 1777510209 | 25° C | 79% | 1012.7 hPa | 0 mm | - | 0 W/m² | - |
| 1777509905 | 25.56° C | 79% | 1012.6 hPa | 0 mm | - | 0 W/m² | - |
| 1777509600 | 25.56° C | 79% | 1012.5 hPa | 0 mm | - | 0 W/m² | - |
| 1777509297 | 25.56° C | 79% | 1012.4 hPa | 0 mm | - | 0 W/m² | - |
| 1777508994 | 25.56° C | 79% | 1012.4 hPa | 0 mm | - | 0 W/m² | - |
| 1777508691 | 25.56° C | 79% | 1012.3 hPa | 0 mm | - | 0 W/m² | - |
| 1777508389 | 25.56° C | 79% | 1012.2 hPa | 0 mm | - | 0 W/m² | - |
| 1777508086 | 25.56° C | 79% | 1012.1 hPa | 0 mm | - | 0 W/m² | - |
| 1777507782 | 25.56° C | 79% | 1012.2 hPa | 0 mm | - | 0 W/m² | - |
| 1777507479 | 25.56° C | 79% | 1011.9 hPa | 0 mm | - | 1 W/m² | - |
| 1777507176 | 25.56° C | 79% | 1011.7 hPa | 0 mm | - | 2 W/m² | - |
| 1777506874 | 25.56° C | 79% | 1011.8 hPa | 0 mm | - | 4 W/m² | - |
| 1777506566 | 25.56° C | 79% | 1011.8 hPa | 0 mm | - | 7 W/m² | - |
| 1777506261 | 26.11° C | 78% | 1011.7 hPa | 0 mm | - | 11 W/m² | - |
| 1777505958 | 26.11° C | 78% | 1011.8 hPa | 0 mm | - | 15 W/m² | - |
| 1777505653 | 26.11° C | 77% | 1011.7 hPa | 0 mm | - | 21 W/m² | - |
| 1777505351 | 26.11° C | 75% | 1011.8 hPa | 0 mm | - | 27 W/m² | - |
| 1777505047 | 26.11° C | 75% | 1011.8 hPa | 0 mm | - | 36 W/m² | - |
| 1777504744 | 26.67° C | 75% | 1012 hPa | 0 mm | - | 46 W/m² | - |
| 1777504441 | 26.67° C | 75% | 1012 hPa | 0 mm | - | 55 W/m² | - |
| 1777504136 | 26.67° C | 75% | 1012.2 hPa | 0 mm | - | 64 W/m² | - |
| 1777503832 | 26.67° C | 75% | 1012 hPa | 0 mm | - | 74 W/m² | - |
| 1777503529 | 26.67° C | 75% | 1012 hPa | 0 mm | - | 82 W/m² | - |
* Rain latest hour (hover to see other rain measurements)
** Current wind speed in m/s (hover to see current wind gust speed)